Year,Month,Day,Hour,Minute,Value (Times are PST for temperature in C)
2011,03,28,00,00,5.50
2011,03,28,00,01,5.50
2011,03,28,00,02,5.50
2011,03,28,00,03,5.60
2011,03,28,00,04,5.60
2011,03,28,00,05,5.70
2011,03,28,00,06,5.70
2011,03,28,00,07,5.70
2011,03,28,00,08,5.70
2011,03,28,00,09,5.80
2011,03,28,00,10,5.80
2011,03,28,00,11,5.80
2011,03,28,00,12,5.80
2011,03,28,00,13,5.90
2011,03,28,00,14,5.90
2011,03,28,00,15,5.90
2011,03,28,00,16,5.90
2011,03,28,00,17,6.00
2011,03,28,00,18,6.00
2011,03,28,00,19,6.00
2011,03,28,00,20,6.10
2011,03,28,00,21,6.10
2011,03,28,00,22,6.10
2011,03,28,00,23,6.10
2011,03,28,00,24,6.10
2011,03,28,00,25,6.10
2011,03,28,00,26,6.10
2011,03,28,00,27,6.10
2011,03,28,00,28,6.10
2011,03,28,00,29,6.10
2011,03,28,00,30,6.10
2011,03,28,00,31,6.20
2011,03,28,00,32,6.20
2011,03,28,00,33,6.20
2011,03,28,00,34,6.20
2011,03,28,00,35,6.20
2011,03,28,00,36,6.20
2011,03,28,00,37,6.30
2011,03,28,00,38,6.30
2011,03,28,00,39,6.30
2011,03,28,00,40,6.30
2011,03,28,00,41,6.30
2011,03,28,00,42,6.30
2011,03,28,00,43,6.30
2011,03,28,00,44,6.30
2011,03,28,00,45,6.30
2011,03,28,00,46,6.30
2011,03,28,00,47,6.30
2011,03,28,00,48,6.30
2011,03,28,00,49,6.30
2011,03,28,00,50,6.30
2011,03,28,00,51,6.20
2011,03,28,00,52,6.20
2011,03,28,00,53,6.20
2011,03,28,00,54,6.20
2011,03,28,00,55,6.20
2011,03,28,00,56,6.20
2011,03,28,00,57,6.20
2011,03,28,00,58,6.20
2011,03,28,00,59,6.20
2011,03,28,01,00,6.20
2011,03,28,01,01,6.20
2011,03,28,01,02,6.10
2011,03,28,01,03,6.10
2011,03,28,01,04,6.10
2011,03,28,01,05,6.10
2011,03,28,01,06,6.00
2011,03,28,01,07,6.00
2011,03,28,01,08,6.00
2011,03,28,01,09,6.00
2011,03,28,01,10,5.90
2011,03,28,01,11,5.90
2011,03,28,01,12,5.90
2011,03,28,01,13,5.90
2011,03,28,01,14,5.90
2011,03,28,01,15,5.90
2011,03,28,01,16,5.90
2011,03,28,01,17,5.90
2011,03,28,01,18,5.90
2011,03,28,01,19,6.00
2011,03,28,01,20,6.00
2011,03,28,01,21,6.00
2011,03,28,01,22,6.00
2011,03,28,01,23,6.00
2011,03,28,01,24,6.00
2011,03,28,01,25,6.00
2011,03,28,01,26,6.00
2011,03,28,01,27,6.00
2011,03,28,01,28,6.00
2011,03,28,01,29,5.90
2011,03,28,01,30,5.90
2011,03,28,01,31,5.90
2011,03,28,01,32,5.90
2011,03,28,01,33,5.90
2011,03,28,01,34,5.90
2011,03,28,01,35,5.90
2011,03,28,01,36,5.90
2011,03,28,01,37,5.90
2011,03,28,01,38,5.90
2011,03,28,01,39,5.80
2011,03,28,01,40,5.80
2011,03,28,01,41,5.80
2011,03,28,01,42,5.80
2011,03,28,01,43,5.80
2011,03,28,01,44,5.70
2011,03,28,01,45,5.70
2011,03,28,01,46,5.70
2011,03,28,01,47,5.70
2011,03,28,01,48,5.60
2011,03,28,01,49,5.60
2011,03,28,01,50,5.60
2011,03,28,01,51,5.60
2011,03,28,01,52,5.60
2011,03,28,01,53,5.60
2011,03,28,01,54,5.60
2011,03,28,01,55,5.50
2011,03,28,01,56,5.50
2011,03,28,01,57,5.50
2011,03,28,01,58,5.50
2011,03,28,01,59,5.50
2011,03,28,02,00,5.50
2011,03,28,02,01,5.50
2011,03,28,02,02,5.60
2011,03,28,02,03,5.60
2011,03,28,02,04,5.60
2011,03,28,02,05,5.60
2011,03,28,02,06,5.60
2011,03,28,02,07,5.60
2011,03,28,02,08,5.70
2011,03,28,02,09,5.70
2011,03,28,02,10,5.70
2011,03,28,02,11,5.70
2011,03,28,02,12,5.70
2011,03,28,02,13,5.70
2011,03,28,02,14,5.70
2011,03,28,02,15,5.80
2011,03,28,02,16,5.80
2011,03,28,02,17,5.80
2011,03,28,02,18,5.80
2011,03,28,02,19,5.80
2011,03,28,02,20,5.80
2011,03,28,02,21,5.80
2011,03,28,02,22,5.70
2011,03,28,02,23,5.70
2011,03,28,02,24,5.70
2011,03,28,02,25,5.70
2011,03,28,02,26,5.70
2011,03,28,02,27,5.70
2011,03,28,02,28,5.70
2011,03,28,02,29,5.70
2011,03,28,02,30,5.70
2011,03,28,02,31,5.70
2011,03,28,02,32,5.70
2011,03,28,02,33,5.70
2011,03,28,02,34,5.70
2011,03,28,02,35,5.70
2011,03,28,02,36,5.70
2011,03,28,02,37,5.70
2011,03,28,02,38,5.70
2011,03,28,02,39,5.70
2011,03,28,02,40,5.70
2011,03,28,02,41,5.70
2011,03,28,02,42,5.70
2011,03,28,02,43,5.70
2011,03,28,02,44,5.70
2011,03,28,02,45,5.70
2011,03,28,02,46,5.70
2011,03,28,02,47,5.70
2011,03,28,02,48,5.70
2011,03,28,02,49,5.70
2011,03,28,02,50,5.60
2011,03,28,02,51,5.60
2011,03,28,02,52,5.60
2011,03,28,02,53,5.60
2011,03,28,02,54,5.50
2011,03,28,02,55,5.50
2011,03,28,02,56,5.50
2011,03,28,02,57,5.50
2011,03,28,02,58,5.50
2011,03,28,02,59,5.50
2011,03,28,03,00,5.40
2011,03,28,03,01,5.40
2011,03,28,03,02,5.40
2011,03,28,03,03,5.40
2011,03,28,03,04,5.40
2011,03,28,03,05,5.40
2011,03,28,03,06,5.30
2011,03,28,03,07,5.30
2011,03,28,03,08,5.30
2011,03,28,03,09,5.30
2011,03,28,03,10,5.30
2011,03,28,03,11,5.30
2011,03,28,03,12,5.20
2011,03,28,03,13,5.20
2011,03,28,03,14,5.20
2011,03,28,03,15,5.20
2011,03,28,03,16,5.10
2011,03,28,03,17,5.10
2011,03,28,03,18,5.10
2011,03,28,03,19,5.10
2011,03,28,03,20,5.10
2011,03,28,03,21,5.00
2011,03,28,03,22,4.90
2011,03,28,03,23,4.90
2011,03,28,03,24,4.80
2011,03,28,03,25,4.80
2011,03,28,03,26,4.80
2011,03,28,03,27,4.70
2011,03,28,03,28,4.70
2011,03,28,03,29,4.70
2011,03,28,03,30,4.60
2011,03,28,03,31,4.60
2011,03,28,03,32,4.60
2011,03,28,03,33,4.50
2011,03,28,03,34,4.40
2011,03,28,03,35,4.40
2011,03,28,03,36,4.40
2011,03,28,03,37,4.40
2011,03,28,03,38,4.40
2011,03,28,03,39,4.30
2011,03,28,03,40,4.30
2011,03,28,03,41,4.30
2011,03,28,03,42,4.20
2011,03,28,03,43,4.20
2011,03,28,03,44,4.20
2011,03,28,03,45,4.20
2011,03,28,03,46,4.20
2011,03,28,03,47,4.10
2011,03,28,03,48,4.10
2011,03,28,03,49,4.10
2011,03,28,03,50,4.10
2011,03,28,03,51,4.10
2011,03,28,03,52,4.10
2011,03,28,03,53,4.10
2011,03,28,03,54,4.10
2011,03,28,03,55,4.10
2011,03,28,03,56,4.20
2011,03,28,03,57,4.20
2011,03,28,03,58,4.20
2011,03,28,03,59,4.20
2011,03,28,04,00,4.20
2011,03,28,04,01,4.10
2011,03,28,04,02,4.10
2011,03,28,04,03,4.10
2011,03,28,04,04,4.10
2011,03,28,04,05,4.10
2011,03,28,04,06,4.10
2011,03,28,04,07,4.10
2011,03,28,04,08,4.00
2011,03,28,04,09,4.00
2011,03,28,04,10,4.00
2011,03,28,04,11,3.90
2011,03,28,04,12,3.90
2011,03,28,04,13,3.90
2011,03,28,04,14,3.90
2011,03,28,04,15,3.80
2011,03,28,04,16,3.80
2011,03,28,04,17,3.80
2011,03,28,04,18,3.80
2011,03,28,04,19,3.80
2011,03,28,04,20,3.70
2011,03,28,04,21,3.70
2011,03,28,04,22,3.70
2011,03,28,04,23,3.70
2011,03,28,04,24,3.70
2011,03,28,04,25,3.60
2011,03,28,04,26,3.60
2011,03,28,04,27,3.60
2011,03,28,04,28,3.50
2011,03,28,04,29,3.50
2011,03,28,04,30,3.50
2011,03,28,04,31,3.50
2011,03,28,04,32,3.40
2011,03,28,04,33,3.40
2011,03,28,04,34,3.40
2011,03,28,04,35,3.40
2011,03,28,04,36,3.30
2011,03,28,04,37,3.30
2011,03,28,04,38,3.30
2011,03,28,04,39,3.30
2011,03,28,04,40,3.30
2011,03,28,04,41,3.30
2011,03,28,04,42,3.30
2011,03,28,04,43,3.20
2011,03,28,04,44,3.20
2011,03,28,04,45,3.20
2011,03,28,04,46,3.20
2011,03,28,04,47,3.20
2011,03,28,04,48,3.10
2011,03,28,04,49,3.10
2011,03,28,04,50,3.10
2011,03,28,04,51,3.10
2011,03,28,04,52,3.10
2011,03,28,04,53,3.00
2011,03,28,04,54,3.00
2011,03,28,04,55,3.00
2011,03,28,04,56,2.90
2011,03,28,04,57,2.90
2011,03,28,04,58,2.90
2011,03,28,04,59,2.90
2011,03,28,05,00,2.90
2011,03,28,05,01,2.90
2011,03,28,05,02,2.90
2011,03,28,05,03,2.80
2011,03,28,05,04,2.80
2011,03,28,05,05,2.80
2011,03,28,05,06,2.80
2011,03,28,05,07,2.80
2011,03,28,05,08,2.80
2011,03,28,05,09,2.80
2011,03,28,05,10,2.80
2011,03,28,05,11,2.80
2011,03,28,05,12,2.80
2011,03,28,05,13,2.80
2011,03,28,05,14,2.70
2011,03,28,05,15,2.70
2011,03,28,05,16,2.70
2011,03,28,05,17,2.70
2011,03,28,05,18,2.70
2011,03,28,05,19,2.70
2011,03,28,05,20,2.60
2011,03,28,05,21,2.60
2011,03,28,05,22,2.60
2011,03,28,05,23,2.60
2011,03,28,05,24,2.60
2011,03,28,05,25,2.60
2011,03,28,05,26,2.50
2011,03,28,05,27,2.50
2011,03,28,05,28,2.50
2011,03,28,05,29,2.50
2011,03,28,05,30,2.50
2011,03,28,05,31,2.40
2011,03,28,05,32,2.40
2011,03,28,05,33,2.40
2011,03,28,05,34,2.40
2011,03,28,05,35,2.40
2011,03,28,05,36,2.40
2011,03,28,05,37,2.30
2011,03,28,05,38,2.30
2011,03,28,05,39,2.30
2011,03,28,05,40,2.30
2011,03,28,05,41,2.30
2011,03,28,05,42,2.30
2011,03,28,05,43,2.20
2011,03,28,05,44,2.20
2011,03,28,05,45,2.20
2011,03,28,05,46,2.20
2011,03,28,05,47,2.20
2011,03,28,05,48,2.20
2011,03,28,05,49,2.20
2011,03,28,05,50,2.10
2011,03,28,05,51,2.10
2011,03,28,05,52,2.10
2011,03,28,05,53,2.10
2011,03,28,05,54,2.10
2011,03,28,05,55,2.10
2011,03,28,05,56,2.00
2011,03,28,05,57,2.00
2011,03,28,05,58,2.00
2011,03,28,05,59,2.00
2011,03,28,06,00,1.90
2011,03,28,06,01,1.90
2011,03,28,06,02,1.90
2011,03,28,06,03,1.90
2011,03,28,06,04,1.90
2011,03,28,06,05,1.90
2011,03,28,06,06,1.90
2011,03,28,06,07,1.90
2011,03,28,06,08,1.80
2011,03,28,06,09,1.80
2011,03,28,06,10,1.80
2011,03,28,06,11,1.80
2011,03,28,06,12,1.80
2011,03,28,06,13,1.80
2011,03,28,06,14,1.80
2011,03,28,06,15,1.80
2011,03,28,06,16,1.80
2011,03,28,06,17,1.80
2011,03,28,06,18,1.80
2011,03,28,06,19,1.80
2011,03,28,06,20,1.80
2011,03,28,06,21,1.70
2011,03,28,06,22,1.70
2011,03,28,06,23,1.70
2011,03,28,06,24,1.70
2011,03,28,06,25,1.70
2011,03,28,06,26,1.70
2011,03,28,06,27,1.70
2011,03,28,06,28,1.70
2011,03,28,06,29,1.70
2011,03,28,06,30,1.70
2011,03,28,06,31,1.70
2011,03,28,06,32,1.70
2011,03,28,06,33,1.70
2011,03,28,06,34,1.70
2011,03,28,06,35,1.70
2011,03,28,06,36,1.70
2011,03,28,06,37,1.70
2011,03,28,06,38,1.60
2011,03,28,06,39,1.60
2011,03,28,06,40,1.60
2011,03,28,06,41,1.60
2011,03,28,06,42,1.60
2011,03,28,06,43,1.60
2011,03,28,06,44,1.50
2011,03,28,06,45,1.50
2011,03,28,06,46,1.50
2011,03,28,06,47,1.50
2011,03,28,06,48,1.40
2011,03,28,06,49,1.40
2011,03,28,06,50,1.40
2011,03,28,06,51,1.30
2011,03,28,06,52,1.30
2011,03,28,06,53,1.30
2011,03,28,06,54,1.30
2011,03,28,06,55,1.30
2011,03,28,06,56,1.30
2011,03,28,06,57,1.30
2011,03,28,06,58,1.30
2011,03,28,06,59,1.30
2011,03,28,07,00,1.30
2011,03,28,07,01,1.30
2011,03,28,07,02,1.30
2011,03,28,07,03,1.40
2011,03,28,07,04,1.40
2011,03,28,07,05,1.40
2011,03,28,07,06,1.40
2011,03,28,07,07,1.50
2011,03,28,07,08,1.50
2011,03,28,07,09,1.50
2011,03,28,07,10,1.50
2011,03,28,07,11,1.50
2011,03,28,07,12,1.40
2011,03,28,07,13,1.40
2011,03,28,07,14,1.40
2011,03,28,07,15,1.30
2011,03,28,07,16,1.30
2011,03,28,07,17,1.30
2011,03,28,07,18,1.30
2011,03,28,07,19,1.30
2011,03,28,07,20,1.30
2011,03,28,07,21,1.30
2011,03,28,07,22,1.30
2011,03,28,07,23,1.30
2011,03,28,07,24,1.30
2011,03,28,07,25,1.30
2011,03,28,07,26,1.30
2011,03,28,07,27,1.30
2011,03,28,07,28,1.30
2011,03,28,07,29,1.30
2011,03,28,07,30,1.30
2011,03,28,07,31,1.30
2011,03,28,07,32,1.30
2011,03,28,07,33,1.30
2011,03,28,07,34,1.30
2011,03,28,07,35,1.30
2011,03,28,07,36,1.30
2011,03,28,07,37,1.30
2011,03,28,07,38,1.30
2011,03,28,07,39,1.30
2011,03,28,07,40,1.30
2011,03,28,07,41,1.30
2011,03,28,07,42,1.30
2011,03,28,07,43,1.30
2011,03,28,07,44,1.30
2011,03,28,07,45,1.30
2011,03,28,07,46,1.30
2011,03,28,07,47,1.30
2011,03,28,07,48,1.30
2011,03,28,07,49,1.30
2011,03,28,07,50,1.30
2011,03,28,07,51,1.30
2011,03,28,07,52,1.30
2011,03,28,07,53,1.40
2011,03,28,07,54,1.40
2011,03,28,07,55,1.50
2011,03,28,07,56,1.50
2011,03,28,07,57,1.50
2011,03,28,07,58,1.60
2011,03,28,07,59,1.60
2011,03,28,08,00,1.60
2011,03,28,08,01,1.60
2011,03,28,08,02,1.70
2011,03,28,08,03,1.70
2011,03,28,08,04,1.70
2011,03,28,08,05,1.80
2011,03,28,08,06,1.90
2011,03,28,08,07,1.90
2011,03,28,08,08,2.00
2011,03,28,08,09,2.00
2011,03,28,08,10,2.10
2011,03,28,08,11,2.10
2011,03,28,08,12,2.20
2011,03,28,08,13,2.20
2011,03,28,08,14,2.20
2011,03,28,08,15,2.30
2011,03,28,08,16,2.30
2011,03,28,08,17,2.40
2011,03,28,08,18,2.40
2011,03,28,08,19,2.50
2011,03,28,08,20,2.50
2011,03,28,08,21,2.60
2011,03,28,08,22,2.60
2011,03,28,08,23,2.70
2011,03,28,08,24,2.70
2011,03,28,08,25,2.80
2011,03,28,08,26,2.90
2011,03,28,08,27,2.90
2011,03,28,08,28,3.00
2011,03,28,08,29,3.10
2011,03,28,08,30,3.10
2011,03,28,08,31,3.20
2011,03,28,08,32,3.30
2011,03,28,08,33,3.30
2011,03,28,08,34,3.40
2011,03,28,08,35,3.50
2011,03,28,08,36,3.50
2011,03,28,08,37,3.60
2011,03,28,08,38,3.60
2011,03,28,08,39,3.70
2011,03,28,08,40,3.80
2011,03,28,08,41,3.90
2011,03,28,08,42,4.00
2011,03,28,08,43,4.00
2011,03,28,08,44,4.10
2011,03,28,08,45,4.20
2011,03,28,08,46,4.30
2011,03,28,08,47,4.30
2011,03,28,08,48,4.40
2011,03,28,08,49,4.50
2011,03,28,08,50,4.60
2011,03,28,08,51,4.60
2011,03,28,08,52,4.70
2011,03,28,08,53,4.80
2011,03,28,08,54,4.80
2011,03,28,08,55,4.80
2011,03,28,08,56,4.90
2011,03,28,08,57,5.00
2011,03,28,08,58,5.00
2011,03,28,08,59,5.10
2011,03,28,09,00,5.10
2011,03,28,09,01,5.20
2011,03,28,09,02,5.20
2011,03,28,09,03,5.30
2011,03,28,09,04,5.30
2011,03,28,09,05,5.40
2011,03,28,09,06,5.50
2011,03,28,09,07,5.50
2011,03,28,09,08,5.60
2011,03,28,09,09,5.70
2011,03,28,09,10,5.70
2011,03,28,09,11,5.80
2011,03,28,09,12,5.90
2011,03,28,09,13,5.90
2011,03,28,09,14,6.00
2011,03,28,09,15,6.00
2011,03,28,09,16,6.10
2011,03,28,09,17,6.10
2011,03,28,09,18,6.10
2011,03,28,09,19,6.20
2011,03,28,09,20,6.20
2011,03,28,09,21,6.20
2011,03,28,09,22,6.20
2011,03,28,09,23,6.20
2011,03,28,09,24,6.20
2011,03,28,09,25,6.30
2011,03,28,09,26,6.30
2011,03,28,09,27,6.30
2011,03,28,09,28,6.30
2011,03,28,09,29,6.30
2011,03,28,09,30,6.40
2011,03,28,09,31,6.40
2011,03,28,09,32,6.40
2011,03,28,09,33,6.40
2011,03,28,09,34,6.40
2011,03,28,09,35,6.40
2011,03,28,09,36,6.50
2011,03,28,09,37,6.50
2011,03,28,09,38,6.50
2011,03,28,09,39,6.50
2011,03,28,09,40,6.50
2011,03,28,09,41,6.50
2011,03,28,09,42,6.50
2011,03,28,09,43,6.60
2011,03,28,09,44,6.60
2011,03,28,09,45,6.60
2011,03,28,09,46,6.60
2011,03,28,09,47,6.60
2011,03,28,09,48,6.60
2011,03,28,09,49,6.50
2011,03,28,09,50,6.50
2011,03,28,09,51,6.50
2011,03,28,09,52,6.40
2011,03,28,09,53,6.40
2011,03,28,09,54,6.40
2011,03,28,09,55,6.40
2011,03,28,09,56,6.40
2011,03,28,09,57,6.40
2011,03,28,09,58,6.40
2011,03,28,09,59,6.40
2011,03,28,10,00,6.40
2011,03,28,10,01,6.40
2011,03,28,10,02,6.40
2011,03,28,10,03,6.40
2011,03,28,10,04,6.40
2011,03,28,10,05,6.30
2011,03,28,10,06,6.30
2011,03,28,10,07,6.30
2011,03,28,10,08,6.30
2011,03,28,10,09,6.30
2011,03,28,10,10,6.30
2011,03,28,10,11,6.30
2011,03,28,10,12,6.30
2011,03,28,10,13,6.30
2011,03,28,10,14,6.30
2011,03,28,10,15,6.30
2011,03,28,10,16,6.20
2011,03,28,10,17,6.20
2011,03,28,10,18,6.20
2011,03,28,10,19,6.20
2011,03,28,10,20,6.20
2011,03,28,10,21,6.20
2011,03,28,10,22,6.20
2011,03,28,10,23,6.10
2011,03,28,10,24,6.10
2011,03,28,10,25,6.10
2011,03,28,10,26,6.10
2011,03,28,10,27,6.20
2011,03,28,10,28,6.20
2011,03,28,10,29,6.30
2011,03,28,10,30,6.30
2011,03,28,10,31,6.30
2011,03,28,10,32,6.30
2011,03,28,10,33,6.40
2011,03,28,10,34,6.40
2011,03,28,10,35,6.40
2011,03,28,10,36,6.40
2011,03,28,10,37,6.50
2011,03,28,10,38,6.50
2011,03,28,10,39,6.60
2011,03,28,10,40,6.70
2011,03,28,10,41,6.80
2011,03,28,10,42,6.90
2011,03,28,10,43,6.90
2011,03,28,10,44,6.90
2011,03,28,10,45,6.90
2011,03,28,10,46,6.90
2011,03,28,10,47,7.00
2011,03,28,10,48,7.10
2011,03,28,10,49,7.20
2011,03,28,10,50,7.20
2011,03,28,10,51,7.30
2011,03,28,10,52,7.30
2011,03,28,10,53,7.40
2011,03,28,10,54,7.40
2011,03,28,10,55,7.50
2011,03,28,10,56,7.60
2011,03,28,10,57,7.70
2011,03,28,10,58,7.70
2011,03,28,10,59,7.70
2011,03,28,11,00,7.80
2011,03,28,11,01,7.90
2011,03,28,11,02,8.00
2011,03,28,11,03,8.10
2011,03,28,11,04,8.10
2011,03,28,11,05,8.20
2011,03,28,11,06,8.20
2011,03,28,11,07,8.20
2011,03,28,11,08,8.20
2011,03,28,11,09,8.20
2011,03,28,11,10,8.20
2011,03,28,11,11,8.20
2011,03,28,11,12,8.20
2011,03,28,11,13,8.20
2011,03,28,11,14,8.20
2011,03,28,11,15,8.30
2011,03,28,11,16,8.40
2011,03,28,11,17,8.50
2011,03,28,11,18,8.50
2011,03,28,11,19,8.60
2011,03,28,11,20,8.70
2011,03,28,11,21,8.60
2011,03,28,11,22,8.70
2011,03,28,11,23,8.70
2011,03,28,11,24,8.70
2011,03,28,11,25,8.70
2011,03,28,11,26,8.60
2011,03,28,11,27,8.50
2011,03,28,11,28,8.40
2011,03,28,11,29,8.30
2011,03,28,11,30,8.20
2011,03,28,11,31,8.20
2011,03,28,11,32,8.20
2011,03,28,11,33,8.20
2011,03,28,11,34,8.20
2011,03,28,11,35,8.30
2011,03,28,11,36,8.40
2011,03,28,11,37,8.40
2011,03,28,11,38,8.40
2011,03,28,11,39,8.30
2011,03,28,11,40,8.30
2011,03,28,11,41,8.30
2011,03,28,11,42,8.20
2011,03,28,11,43,8.10
2011,03,28,11,44,8.10
2011,03,28,11,45,8.10
2011,03,28,11,46,8.10
2011,03,28,11,47,8.20
2011,03,28,11,48,8.30
2011,03,28,11,49,8.30
2011,03,28,11,50,8.40
2011,03,28,11,51,8.40
2011,03,28,11,52,8.50
2011,03,28,11,53,8.50
2011,03,28,11,54,8.50
2011,03,28,11,55,8.60
2011,03,28,11,56,8.60
2011,03,28,11,57,8.60
2011,03,28,11,58,8.60
2011,03,28,11,59,8.50
2011,03,28,12,00,8.50
2011,03,28,12,01,8.40
2011,03,28,12,02,8.40
2011,03,28,12,03,8.30
2011,03,28,12,04,8.30
2011,03,28,12,05,8.40
2011,03,28,12,06,8.40
2011,03,28,12,07,8.40
2011,03,28,12,08,8.40
2011,03,28,12,09,8.40
2011,03,28,12,10,8.30
2011,03,28,12,11,8.30
2011,03,28,12,12,8.30
2011,03,28,12,13,8.40
2011,03,28,12,14,8.40
2011,03,28,12,15,8.50
2011,03,28,12,16,8.50
2011,03,28,12,17,8.60
2011,03,28,12,18,8.70
2011,03,28,12,19,8.70
2011,03,28,12,20,8.70
2011,03,28,12,21,8.80
2011,03,28,12,22,8.80
2011,03,28,12,23,8.80
2011,03,28,12,24,8.80
2011,03,28,12,25,8.90
2011,03,28,12,26,8.90
2011,03,28,12,27,9.00
2011,03,28,12,28,9.00
2011,03,28,12,29,9.00
2011,03,28,12,30,9.10
2011,03,28,12,31,9.10
2011,03,28,12,32,9.10
2011,03,28,12,33,9.10
2011,03,28,12,34,9.10
2011,03,28,12,35,9.10
2011,03,28,12,36,9.10
2011,03,28,12,37,9.10
2011,03,28,12,38,9.10
2011,03,28,12,39,9.10
2011,03,28,12,40,9.10
2011,03,28,12,41,9.10
2011,03,28,12,42,9.10
2011,03,28,12,43,9.20
2011,03,28,12,44,9.20
2011,03,28,12,45,9.20
2011,03,28,12,46,9.20
2011,03,28,12,47,9.20
2011,03,28,12,48,9.10
2011,03,28,12,49,9.10
2011,03,28,12,50,9.10
2011,03,28,12,51,9.00
2011,03,28,12,52,9.00
2011,03,28,12,53,9.00
2011,03,28,12,54,8.90
2011,03,28,12,55,9.00
2011,03,28,12,56,9.00
2011,03,28,12,57,9.00
2011,03,28,12,58,9.00
2011,03,28,12,59,9.00
2011,03,28,13,00,9.10
2011,03,28,13,01,9.20
2011,03,28,13,02,9.20
2011,03,28,13,03,9.20
2011,03,28,13,04,9.20
2011,03,28,13,05,9.20
2011,03,28,13,06,9.30
2011,03,28,13,07,9.30
2011,03,28,13,08,9.30
2011,03,28,13,09,9.30
2011,03,28,13,10,9.20
2011,03,28,13,11,9.20
2011,03,28,13,12,9.20
2011,03,28,13,13,9.20
2011,03,28,13,14,9.20
2011,03,28,13,15,9.10
2011,03,28,13,16,9.10
2011,03,28,13,17,9.10
2011,03,28,13,18,9.20
2011,03,28,13,19,9.10
2011,03,28,13,20,9.10
2011,03,28,13,21,9.00
2011,03,28,13,22,8.90
2011,03,28,13,23,8.80
2011,03,28,13,24,8.80
2011,03,28,13,25,8.80
2011,03,28,13,26,8.90
2011,03,28,13,27,8.90
2011,03,28,13,28,8.90
2011,03,28,13,29,8.90
2011,03,28,13,30,8.80
2011,03,28,13,31,8.80
2011,03,28,13,32,8.70
2011,03,28,13,33,8.60
2011,03,28,13,34,8.50
2011,03,28,13,35,8.50
2011,03,28,13,36,8.40
2011,03,28,13,37,8.40
2011,03,28,13,38,8.30
2011,03,28,13,39,8.40
2011,03,28,13,40,8.40
2011,03,28,13,41,8.40
2011,03,28,13,42,8.50
2011,03,28,13,43,8.40
2011,03,28,13,44,8.50
2011,03,28,13,45,8.40
2011,03,28,13,46,8.40
2011,03,28,13,47,8.40
2011,03,28,13,48,8.40
2011,03,28,13,49,8.40
2011,03,28,13,50,8.50
2011,03,28,13,51,8.50
2011,03,28,13,52,8.60
2011,03,28,13,53,8.70
2011,03,28,13,54,8.70
2011,03,28,13,55,8.80
2011,03,28,13,56,8.80
2011,03,28,13,57,8.80
2011,03,28,13,58,8.90
2011,03,28,13,59,9.00
2011,03,28,14,00,9.10
2011,03,28,14,01,9.20
2011,03,28,14,02,9.20
2011,03,28,14,03,9.20
2011,03,28,14,04,9.20
2011,03,28,14,05,9.20
2011,03,28,14,06,9.20
2011,03,28,14,07,9.20
2011,03,28,14,08,9.20
2011,03,28,14,09,9.20
2011,03,28,14,10,9.20
2011,03,28,14,11,9.10
2011,03,28,14,12,9.00
2011,03,28,14,13,9.00
2011,03,28,14,14,8.90
2011,03,28,14,15,8.80
2011,03,28,14,16,8.80
2011,03,28,14,17,8.90
2011,03,28,14,18,8.90
2011,03,28,14,19,9.00
2011,03,28,14,20,9.00
2011,03,28,14,21,9.10
2011,03,28,14,22,9.10
2011,03,28,14,23,9.20
2011,03,28,14,24,9.20
2011,03,28,14,25,9.10
2011,03,28,14,26,9.10
2011,03,28,14,27,9.00
2011,03,28,14,28,8.90
2011,03,28,14,29,8.80
2011,03,28,14,30,8.70
2011,03,28,14,31,8.60
2011,03,28,14,32,8.50
2011,03,28,14,33,8.40
2011,03,28,14,34,8.40
2011,03,28,14,35,8.40
2011,03,28,14,36,8.40
2011,03,28,14,37,8.40
2011,03,28,14,38,8.40
2011,03,28,14,39,8.50
2011,03,28,14,40,8.50
2011,03,28,14,41,8.50
2011,03,28,14,42,8.50
2011,03,28,14,43,8.40
2011,03,28,14,44,8.40
2011,03,28,14,45,8.40
2011,03,28,14,46,8.40
2011,03,28,14,47,8.40
2011,03,28,14,48,8.40
2011,03,28,14,49,8.50
2011,03,28,14,50,8.50
2011,03,28,14,51,8.60
2011,03,28,14,52,8.60
2011,03,28,14,53,8.60
2011,03,28,14,54,8.60
2011,03,28,14,55,8.60
2011,03,28,14,56,8.60
2011,03,28,14,57,8.60
2011,03,28,14,58,8.60
2011,03,28,14,59,8.60
2011,03,28,15,00,8.60
2011,03,28,15,01,8.60
2011,03,28,15,02,8.60
2011,03,28,15,03,8.60
2011,03,28,15,04,8.60
2011,03,28,15,05,8.50
2011,03,28,15,06,8.50
2011,03,28,15,07,8.50
2011,03,28,15,08,8.60
2011,03,28,15,09,8.60
2011,03,28,15,10,8.60
2011,03,28,15,11,8.60
2011,03,28,15,12,8.60
2011,03,28,15,13,8.60
2011,03,28,15,14,8.60
2011,03,28,15,15,8.70
2011,03,28,15,16,8.70
2011,03,28,15,17,8.60
2011,03,28,15,18,8.60
2011,03,28,15,19,8.60
2011,03,28,15,20,8.60
2011,03,28,15,21,8.70
2011,03,28,15,22,8.70
2011,03,28,15,23,8.80
2011,03,28,15,24,8.80
2011,03,28,15,25,8.90
2011,03,28,15,26,8.90
2011,03,28,15,27,8.90
2011,03,28,15,28,9.00
2011,03,28,15,29,8.90
2011,03,28,15,30,8.90
2011,03,28,15,31,8.90
2011,03,28,15,32,8.90
2011,03,28,15,33,8.90
2011,03,28,15,34,8.90
2011,03,28,15,35,8.90
2011,03,28,15,36,9.00
2011,03,28,15,37,9.00
2011,03,28,15,38,9.00
2011,03,28,15,39,9.10
2011,03,28,15,40,9.10
2011,03,28,15,41,9.10
2011,03,28,15,42,9.20
2011,03,28,15,43,9.20
2011,03,28,15,44,9.20
2011,03,28,15,45,9.20
2011,03,28,15,46,9.20
2011,03,28,15,47,9.20
2011,03,28,15,48,9.30
2011,03,28,15,49,9.30
2011,03,28,15,50,9.30
2011,03,28,15,51,9.30
2011,03,28,15,52,9.30
2011,03,28,15,53,9.40
2011,03,28,15,54,9.40
2011,03,28,15,55,9.40
2011,03,28,15,56,9.40
2011,03,28,15,57,9.40
2011,03,28,15,58,9.50
2011,03,28,15,59,9.50
2011,03,28,16,00,9.60
2011,03,28,16,01,9.60
2011,03,28,16,02,9.60
2011,03,28,16,03,9.70
2011,03,28,16,04,9.70
2011,03,28,16,05,9.80
2011,03,28,16,06,9.80
2011,03,28,16,07,9.90
2011,03,28,16,08,10.00
2011,03,28,16,09,10.00
2011,03,28,16,10,10.10
2011,03,28,16,11,10.10
2011,03,28,16,12,10.20
2011,03,28,16,13,10.30
2011,03,28,16,14,10.40
2011,03,28,16,15,10.40
2011,03,28,16,16,10.50
2011,03,28,16,17,10.50
2011,03,28,16,18,10.60
2011,03,28,16,19,10.60
2011,03,28,16,20,10.60
2011,03,28,16,21,10.60
2011,03,28,16,22,10.60
2011,03,28,16,23,10.60
2011,03,28,16,24,10.70
2011,03,28,16,25,10.70
2011,03,28,16,26,10.70
2011,03,28,16,27,10.80
2011,03,28,16,28,10.80
2011,03,28,16,29,10.80
2011,03,28,16,30,10.80
2011,03,28,16,31,10.80
2011,03,28,16,32,10.80
2011,03,28,16,33,10.80
2011,03,28,16,34,10.80
2011,03,28,16,35,10.90
2011,03,28,16,36,10.90
2011,03,28,16,37,10.80
2011,03,28,16,38,10.80
2011,03,28,16,39,10.80
2011,03,28,16,40,10.80
2011,03,28,16,41,10.80
2011,03,28,16,42,10.80
2011,03,28,16,43,10.80
2011,03,28,16,44,10.70
2011,03,28,16,45,10.70
2011,03,28,16,46,10.70
2011,03,28,16,47,10.60
2011,03,28,16,48,10.60
2011,03,28,16,49,10.50
2011,03,28,16,50,10.50
2011,03,28,16,51,10.40
2011,03,28,16,52,10.40
2011,03,28,16,53,10.40
2011,03,28,16,54,10.40
2011,03,28,16,55,10.40
2011,03,28,16,56,10.40
2011,03,28,16,57,10.30
2011,03,28,16,58,10.30
2011,03,28,16,59,10.30
2011,03,28,17,00,10.30
2011,03,28,17,01,10.30
2011,03,28,17,02,10.40
2011,03,28,17,03,10.40
2011,03,28,17,04,10.40
2011,03,28,17,05,10.30
2011,03,28,17,06,10.30
2011,03,28,17,07,10.30
2011,03,28,17,08,10.30
2011,03,28,17,09,10.30
2011,03,28,17,10,10.30
2011,03,28,17,11,10.30
2011,03,28,17,12,10.30
2011,03,28,17,13,10.30
2011,03,28,17,14,10.40
2011,03,28,17,15,10.40
2011,03,28,17,16,10.40
2011,03,28,17,17,10.40
2011,03,28,17,18,10.40
2011,03,28,17,19,10.40
2011,03,28,17,20,10.40
2011,03,28,17,21,10.40
2011,03,28,17,22,10.40
2011,03,28,17,23,10.30
2011,03,28,17,24,10.30
2011,03,28,17,25,10.30
2011,03,28,17,26,10.30
2011,03,28,17,27,10.20
2011,03,28,17,28,10.20
2011,03,28,17,29,10.10
2011,03,28,17,30,10.10
2011,03,28,17,31,10.10
2011,03,28,17,32,10.00
2011,03,28,17,33,10.00
2011,03,28,17,34,10.00
2011,03,28,17,35,10.00
2011,03,28,17,36,10.00
2011,03,28,17,37,10.00
2011,03,28,17,38,9.90
2011,03,28,17,39,9.90
2011,03,28,17,40,9.90
2011,03,28,17,41,9.90
2011,03,28,17,42,9.90
2011,03,28,17,43,9.90
2011,03,28,17,44,9.90
2011,03,28,17,45,9.90
2011,03,28,17,46,9.80
2011,03,28,17,47,9.80
2011,03,28,17,48,9.80
2011,03,28,17,49,9.80
2011,03,28,17,50,9.80
2011,03,28,17,51,9.90
2011,03,28,17,52,9.90
2011,03,28,17,53,9.90
2011,03,28,17,54,9.90
2011,03,28,17,55,9.90
2011,03,28,17,56,9.90
2011,03,28,17,57,9.90
2011,03,28,17,58,9.90
2011,03,28,17,59,9.90
2011,03,28,18,00,9.90
2011,03,28,18,01,9.90
2011,03,28,18,02,9.90